Weather History for Perryton, TX

Change the Weather History Date:

Monday, December 3, 2012

  Actual Average Record
Temperature  
Mean Temperature 56 °F -  
Max Temperature 69 °F 52 °F 75 °F (1973)
Min Temperature 42 °F 21 °F 0 °F (1985)
Degree Days  
Heating Degree Days 10    
Growing Degree Days 6 (Base 50)    
Moisture  
Dew Point 27 °F    
Average Humidity 35    
Maximum Humidity 66    
Minimum Humidity 21    
Precipitation  
Precipitation 0.00 in - - ()
Sea Level Pressure  
Sea Level Pressure 29.89 in    
Wind  
Wind Speed 16 mph (NW)    
Max Wind Speed 29 mph    
Max Gust Speed 39 mph    
Visibility 10 miles    
Events      
Averages and records for this station are not official NWS values.
T = Trace of Precipitation, MM = Missing Value Source: NWS Daily Summary

Daily Weather History Graph

Daily Weather History Graph

Search for Another Location

Airport:

Trip Planner

Search our weather history database for the weather conditions in past years. The results will help you decide how hot, cold, wet, or windy it might be!

Date:

Astronomy

Dec. 03, 2012 Rise Set
Actual Time 7:38 AM CST 5:27 PM CST
Civil Twilight 7:09 AM CST 5:56 PM CST
Nautical Twilight 6:38 AM CST 6:27 PM CST
Astronomical Twilight 6:06 AM CST 6:59 PM CST
Moon 10:11 PM CST (12/3) 11:06 AM CST (12/3)
Length of Visible Light 10h 46m
Length of Day
9h 49m
Waning Gibbous, 78% of the Moon is Illuminated
Dec 3
Waning Gibbous
Dec 6
Last Quarter
Dec 13
New
Dec 19
First Quarter
Dec 28
Full

Hourly Weather History & Observations

Time (CST) Temp. Windchill Dew Point Humidity Pressure Visibility Wind Dir Wind Speed Gust Speed Precip Events Conditions
12:15 AM 55.4 °F - 19.4 °F 25% 29.76 in 10.0 mi SSW 16.1 mph - N/A   Clear
12:35 AM 53.6 °F - 19.4 °F 26% 29.75 in 10.0 mi SSW 16.1 mph - N/A   Clear
12:55 AM 53.6 °F - 19.4 °F 26% 29.74 in 10.0 mi SSW 20.7 mph - N/A   Clear
1:15 AM 53.6 °F - 17.6 °F 24% 29.74 in 10.0 mi SSW 17.3 mph - N/A   Clear
1:35 AM 51.8 °F - 19.4 °F 28% 29.73 in 10.0 mi SSW 15.0 mph - N/A   Clear
1:55 AM 53.6 °F - 19.4 °F 26% 29.73 in 10.0 mi SSW 16.1 mph 20.7 mph N/A   Clear
2:15 AM 53.6 °F - 19.4 °F 26% 29.72 in 10.0 mi SSW 15.0 mph - N/A   Clear
2:35 AM 53.6 °F - 19.4 °F 26% 29.73 in 10.0 mi SSW 15.0 mph - N/A   Clear
2:55 AM 53.6 °F - 19.4 °F 26% 29.73 in 10.0 mi SSW 16.1 mph - N/A   Clear
3:15 AM 51.8 °F - 21.2 °F 30% 29.72 in 10.0 mi SSW 12.7 mph - N/A   Clear
3:35 AM 51.8 °F - 21.2 °F 30% 29.71 in 10.0 mi SW 13.8 mph - N/A   Clear
3:55 AM 50.0 °F - 21.2 °F 32% 29.70 in 10.0 mi SSW 12.7 mph - N/A   Clear
4:15 AM 48.2 °F - 21.2 °F 34% 29.70 in 10.0 mi SSW 10.4 mph - N/A   Clear
4:35 AM 48.2 °F - 21.2 °F 34% 29.71 in 10.0 mi SW 10.4 mph - N/A   Clear
4:55 AM 46.4 °F 41.9 °F 21.2 °F 37% 29.70 in 10.0 mi SSW 9.2 mph - N/A   Clear
5:15 AM 44.6 °F 39.7 °F 21.2 °F 39% 29.70 in 10.0 mi South 9.2 mph - N/A   Clear
5:35 AM 46.4 °F 41.5 °F 21.2 °F 37% 29.71 in 10.0 mi SW 10.4 mph - N/A   Clear
5:55 AM 46.4 °F 41.9 °F 21.2 °F 37% 29.71 in 10.0 mi SW 9.2 mph - N/A   Clear
6:15 AM 50.0 °F - 21.2 °F 32% 29.71 in 10.0 mi SW 13.8 mph - N/A   Clear
6:35 AM 53.6 °F - 21.2 °F 28% 29.72 in 10.0 mi SW 18.4 mph 24.2 mph N/A   Clear
6:55 AM 50.0 °F - 21.2 °F 32% 29.73 in 10.0 mi SW 12.7 mph - N/A   Clear
7:15 AM 50.0 °F - 21.2 °F 32% 29.75 in 10.0 mi WSW 13.8 mph - N/A   Clear
7:35 AM 50.0 °F - 21.2 °F 32% 29.76 in 10.0 mi WSW 15.0 mph - N/A   Clear
7:55 AM 51.8 °F - 21.2 °F 30% 29.78 in 10.0 mi WSW 16.1 mph - N/A   Clear
8:15 AM 51.8 °F - 21.2 °F 30% 29.79 in 10.0 mi WSW 17.3 mph - N/A   Clear
8:35 AM 51.8 °F - 21.2 °F 30% 29.79 in 10.0 mi WSW 15.0 mph - N/A   Clear
8:55 AM 53.6 °F - 21.2 °F 28% 29.81 in 10.0 mi WSW 17.3 mph 20.7 mph N/A   Clear
9:15 AM 59.0 °F - 23.0 °F 25% 29.83 in 10.0 mi West 19.6 mph 23.0 mph N/A   Clear
9:35 AM 60.8 °F - 23.0 °F 23% 29.84 in 10.0 mi WNW 23.0 mph 27.6 mph N/A   Clear
10:15 AM 62.6 °F - 23.0 °F 22% 29.87 in 10.0 mi NW 21.9 mph 31.1 mph N/A   Clear
10:35 AM 62.6 °F - 24.8 °F 24% 29.87 in 10.0 mi NW 20.7 mph 28.8 mph N/A   Clear
10:55 AM 64.4 °F - 28.4 °F 26% 29.89 in 10.0 mi NNW 25.3 mph - N/A   Clear
11:15 AM 68.0 °F - 28.4 °F 23% 29.89 in 10.0 mi North 23.0 mph 34.5 mph N/A   Clear
11:35 AM 68.0 °F - 28.4 °F 23% 29.90 in 10.0 mi North 27.6 mph 34.5 mph N/A   Clear
11:55 AM 69.8 °F - 28.4 °F 21% 29.90 in 10.0 mi North 28.8 mph 33.4 mph N/A   Clear
12:15 PM 69.8 °F - 28.4 °F 21% 29.89 in 10.0 mi North 25.3 mph 36.8 mph N/A   Clear
12:35 PM 68.0 °F - 28.4 °F 23% 29.89 in 10.0 mi North 24.2 mph 39.1 mph N/A   Clear
1:15 PM 68.0 °F - 30.2 °F 24% 29.88 in 10.0 mi North 25.3 mph 33.4 mph N/A   Clear
1:35 PM 69.8 °F - 30.2 °F 23% 29.88 in 10.0 mi North 20.7 mph 32.2 mph N/A   Clear
1:55 PM 69.8 °F - 30.2 °F 23% 29.89 in 10.0 mi NNE 16.1 mph 31.1 mph N/A   Clear
2:15 PM 69.8 °F - 30.2 °F 23% 29.90 in 10.0 mi NNE 20.7 mph 27.6 mph N/A   Clear
2:35 PM 69.8 °F - 30.2 °F 23% 29.90 in 10.0 mi North 17.3 mph 26.5 mph N/A   Clear
2:55 PM 68.0 °F - 32.0 °F 26% 29.91 in 10.0 mi NNE 19.6 mph 25.3 mph N/A   Clear
3:15 PM 68.0 °F - 32.0 °F 26% 29.93 in 10.0 mi NNE 18.4 mph 23.0 mph N/A   Clear
3:35 PM 66.2 °F - 32.0 °F 28% 29.94 in 10.0 mi North 18.4 mph 27.6 mph N/A   Clear
3:55 PM 64.4 °F - 30.2 °F 28% 29.96 in 10.0 mi North 18.4 mph 26.5 mph N/A   Clear
4:15 PM 62.6 °F - 30.2 °F 30% 29.97 in 10.0 mi North 15.0 mph 23.0 mph N/A   Clear
4:35 PM 62.6 °F - 30.2 °F 30% 29.98 in 10.0 mi North 17.3 mph - N/A   Clear
5:15 PM 60.8 °F - 32.0 °F 34% 30.00 in 10.0 mi North 15.0 mph 23.0 mph N/A   Clear
5:35 PM 59.0 °F - 32.0 °F 36% 30.02 in 10.0 mi North 12.7 mph - N/A   Clear
5:55 PM 57.2 °F - 33.8 °F 41% 30.03 in 10.0 mi North 15.0 mph - N/A   Clear
6:15 PM 55.4 °F - 33.8 °F 44% 30.04 in 10.0 mi North 13.8 mph - N/A   Clear
6:35 PM 53.6 °F - 32.0 °F 44% 30.05 in 10.0 mi North 12.7 mph - N/A   Clear
6:55 PM 53.6 °F - 32.0 °F 44% 30.05 in 10.0 mi North 13.8 mph - N/A   Clear
7:15 PM 51.8 °F - 33.8 °F 50% 30.06 in 10.0 mi North 12.7 mph - N/A   Clear
7:35 PM 53.6 °F - 33.8 °F 47% 30.08 in 10.0 mi North 11.5 mph - N/A   Scattered Clouds
7:55 PM 51.8 °F - 33.8 °F 50% 30.08 in 10.0 mi North 11.5 mph - N/A   Scattered Clouds
8:15 PM 51.8 °F - 33.8 °F 50% 30.10 in 10.0 mi North 10.4 mph - N/A   Mostly Cloudy
8:35 PM 51.8 °F - 33.8 °F 50% 30.11 in 10.0 mi North 11.5 mph - N/A   Mostly Cloudy
8:55 PM 51.8 °F - 33.8 °F 50% 30.12 in 10.0 mi North 12.7 mph - N/A   Mostly Cloudy
9:15 PM 51.8 °F - 33.8 °F 50% 30.12 in 10.0 mi NNE 11.5 mph - N/A   Mostly Cloudy
9:35 PM 51.8 °F - 33.8 °F 50% 30.12 in 10.0 mi North 10.4 mph - N/A   Scattered Clouds
9:55 PM 50.0 °F - 33.8 °F 54% 30.12 in 10.0 mi North 8.1 mph - N/A   Scattered Clouds
10:15 PM 48.2 °F - 32.0 °F 54% 30.13 in 10.0 mi North 6.9 mph - N/A   Clear
10:35 PM 46.4 °F 41.1 °F 32.0 °F 57% 30.14 in 10.0 mi North 11.5 mph - N/A   Clear
10:55 PM 46.4 °F 40.7 °F 32.0 °F 57% 30.15 in 10.0 mi North 12.7 mph - N/A   Clear
11:15 PM 44.6 °F 40.2 °F 32.0 °F 61% 30.14 in 10.0 mi NNE 8.1 mph - N/A   Clear
11:35 PM 42.8 °F 38.0 °F 32.0 °F 66% 30.16 in 10.0 mi NNW 8.1 mph - N/A   Clear
11:55 PM 42.8 °F 38.6 °F 32.0 °F 66% 30.16 in 10.0 mi North 6.9 mph - N/A   Scattered Clouds